Вернуться в каталог

FENGYUN 1C DEB

АктивенSSO
NORAD 36695·DEBRIS·🇨🇳 China

Запущен May 10, 1999 с Taiyuan Satellite Launch Center

Loading…

Ближайшие Пролёты (ближайшие 24 часа)

TLE

СвежийSource: Space-Track

Эпоха: Sep 14, 2026, 03:45 UTC

1 36695U 99025DZR 26257.15657294  .00001255  00000-0  25523-3 0  9998
2 36695  98.2508 235.1635 0254724  13.3455 347.4310 14.44436068935439

Отслеживайте FENGYUN 1C DEB в реальном времени с AllMySat

Download on the App Store